Regional Weather Roundup
Issued by NWS Northern Indiana

Home | Current Version | Previous Version | Graphics & Text | Print | Product List | Glossary On
Versions: 1 2 3 4 5 6 7 8 9 10 11 12 13 14 15 16 17 18 19 20 21 22 23 24 25 26 27 28 29 30 31 32 33 34 35 36 37 38 39 40 41 42 43 44 45 46 47 48 49 50
000
ASUS43 KIWX 300900
RWRIWX

KIWX WEATHER ROUNDUP
NATIONAL WEATHER SERVICE NORTHERN INDIANA
500 AM EDT THU MAR 30 2017

NOTE: "FAIR" INDICATES FEW OR NO CLOUDS BELOW 12,000 FEET WITH NO
SIGNIFICANT WEATHER AND/OR OBSTRUCTIONS TO VISIBILITY.

* THESE STATIONS ARE NOT UNDER NWS QUALITY CONTROL. THEY ALSO MAY NOT
  REPORT WEATHER SUCH AS PRECIPITATION OR FOG.

INZ001>027-301000-
NORTHERN INDIANA

CITY           SKY/WX    TMP DP  RH WIND       PRES   REMARKS
KNOX*          CLOUDY    43  27  52 NE12      29.90R
SOUTH BEND     LGT RAIN  42  36  79 NE10      29.94S
GOSHEN         LGT RAIN  43  34  70 E22G32    29.87F
MONTICELLO*    CLOUDY    46  37  72 E15G21    29.82F
ANGOLA*        MOCLDY    43  34  70 E20       29.96F
FORT WAYNE     CLOUDY    43  36  75 E25G31    29.92F
PERU/GRISSOM   CLOUDY    45  39  77 E16G26    29.83F

$$
INZ028>050-301000-
CENTRAL INDIANA

CITY           SKY/WX    TMP DP  RH WIND       PRES   REMARKS
LAFAYETTE      CLOUDY    47  42  83 E15       29.81F
KOKOMO*        CLOUDY    45  38  76 E20       29.86S
MUNCIE*        CLOUDY    46  39  76 E17G26    29.86F
INDIANAPOLIS   CLOUDY    54  44  69 SE13      29.82F

$$
MIZ043>046-050>051-056>058-064>065-071>073-077>080-301000-
SOUTHWEST LOWER MICHIGAN

CITY           SKY/WX    TMP DP  RH WIND       PRES   REMARKS
BATTLE CREEK   CLOUDY    41  34  76 E14G26    29.98F
BENTON HARBOR  LGT RAIN  42  37  82 E18G29    29.94F
COLDWATER*     CLOUDY    43  31  62 E18G26    29.96F
HILLSDALE*     CLOUDY    37  32  81 E23       29.98F
HOLLAND        LGT RAIN  39  35  86 E17G26    29.97F
GRAND RAPIDS   CLOUDY    37  34  89 E15       30.03F
KALAMAZOO      RAIN      41  33  73 E8G18     29.98F
STURGIS*       CLOUDY    43  32  66 E23G31    29.92F
THREE RIVERS*  LGT RAIN  42  33  69 NE12G18   29.97F

$$
OHZ001>008-015>018-024>025-301000-
NORTHWEST OHIO

CITY           SKY/WX    TMP DP  RH WIND       PRES   REMARKS
DEFIANCE       CLOUDY    42  34  73 E17G26    29.98F
FINDLAY        LGT RAIN  44  35  70 E17       29.99F
TOLEDO EXPRESS CLOUDY    40  35  83 E18       30.03F
TOLEDO METCALF LGT RAIN  41  36  82 E15       30.06F
LIMA           CLOUDY    44  36  73 E18       29.96F

$$
AND FOR LAKE MICHIGAN COASTAL AND OPEN LAKE BUOY OBSERVATIONS

STATION/POSITION TEMP    WIND        PRES    VSBY  WAVE
                 AIR SEA DIR/SP/G                  HT/PER
                 (F)     (DEG/KT/KT) (MB)    (MI)  (FT/S)
CALUMET HARBOR    41      80/ 10/ 13 1012.8F
MICHIGAN CITY     42      60/ 16/ 19   N/A
BURNS HARBOR      42      30/ 13/ 15 1014.2R

$$
&&




USA.gov is the U.S. government's official web portal to all federal, state and local government web resources and services.